Location: Dover
(39.1580°N, 75.5250°W)
Time: 14:06:00
(UTC-05:00)

SeaSat 1 - Visible Passes

Search period start: 26 February 2017 00:00
Search period end: 08 March 2017 00:00
Orbit: 745 x 747 km, 108.0° (Epoch: 26 February)

Date Brightness Start Highest point End Pass type
(mag) Time Alt. Az. Time Alt. Az. Time Alt. Az.
27 Feb 5.4 05:59:52 10° ENE 06:03:24 20° ESE 06:06:55 10° SSE visible
27 Feb 6.1 18:51:20 10° WSW 18:51:41 10° WSW 18:52:02 10° W visible
02 Mar 5.0 18:18:49 10° SSW 18:22:56 27° WSW 18:27:06 10° NW visible
04 Mar 5.1 18:32:37 10° SSW 18:36:34 24° WSW 18:40:33 10° NW visible
06 Mar 5.2 18:46:25 10° SSW 18:50:11 22° WSW 18:53:58 10° NW visible
